Regional Weather Roundup
Issued by NWS

Home | Current Version | Previous Version | Text Only | Print | Product List | Glossary On
Versions: 1 2 3 4 5 6 7 8 9 10 11 12 13 14 15 16 17 18 19 20 21 22 23 24 25 26 27 28 29 30 31 32 33 34 35 36 37 38 39 40 41 42 43 44 45 46 47 48 49 50
000
ASUS43 KDTX 230401
RWRMI
MICHIGAN HOURLY REGIONAL WEATHER ROUNDUP
NATIONAL WEATHER SERVICE DETROIT/PONTIAC MI
1200 AM EDT SAT JUL 23 2016

NOTE: "FAIR" INDICATES FEW OR NO CLOUDS BELOW 12,000 FEET WITH NO
SIGNIFICANT WEATHER AND/OR OBSTRUCTION TO VISIBILITY.

MIZ047>049-052>055-059>063-066>070-074>076-081>083-230500-
SOUTHEAST LOWER MICHIGAN

CITY           SKY/WX    TMP DP  RH WIND       PRES   REMARKS
ADRIAN         CLEAR     76  71  85 NW5       29.99S
ALMA           CLEAR     75  71  88 W3        29.98S
ANN ARBOR      CLEAR     71  70  96 SW5       29.97S
BAD AXE        CLEAR     64  60  89 CALM      29.95S
CARO           CLEAR     71  68  93 CALM      29.95S
DETROIT CITY   CLEAR     83  71  67 W5        29.95S
DETROIT        CLEAR     81  70  69 SW6       29.97S
FLINT          CLEAR     79  69  71 W7        29.97S
GROSSE ILE     CLEAR     79  71  75 CALM      29.95S
HOWELL         CLEAR     75  69  81 W5        29.98S

CITY           SKY/WX    TMP DP  RH WIND       PRES   REMARKS
JACKSON        CLEAR     74  71  91 CALM      29.99F
LAMBERTVILLE   CLEAR     76  72  85 CALM      29.98F
LANSING        CLEAR     75  68  78 W3        29.99S
LAPEER         FAIR      78  67  68 NW3       29.97S
MASON          CLEAR     74  69  81 W9        29.99S
MONROE         CLEAR     76  72  87 CALM      29.96S
MT. CLEMENS    CLEAR     81  69  66 W7        29.93R
PONTIAC        PTCLDY    78  69  73 W7        29.96F
PORT HOPE        N/A     69  67  93 SW5       29.92S
PORT HURON     CLEAR     75  68  78 CALM      29.94S
TRI CITIES     CLEAR     76  72  87 W9        29.96S
MIDLAND        FAIR      69  63  80 CALM      29.95S
TROY           CLEAR     83  66  56 W7        29.98S
SAGINAW HB     CLEAR     77  70  78 W7        29.95S
$$
MIZ043>046-050>051-056>058-064>065-071>073-077>080-230500-
SOUTHWEST LOWER MICHIGAN

CITY           SKY/WX    TMP DP  RH WIND       PRES   REMARKS
BATTLE CREEK   CLEAR     71  70  96 CALM      30.01S
BENTON HARBOR  CLEAR     71  68  90 CALM      29.98S
BIG RAPIDS     CLEAR     67  66  95 CALM      29.98S
COLDWATER      CLEAR     73  71  95 CALM      30.01S
FREMONT        FAIR      68  68 100 CALM      29.98S
HOLLAND        CLEAR     69  67  93 CALM      29.99S
GRAND RAPIDS   CLEAR     73  67  81 W6        29.99S
IONIA          FAIR      73  67  80 W3        29.98S
KALAMAZOO      CLEAR     72  68  87 CALM      30.00S
LUDINGTON      CLEAR     68  67  96 SW5       29.95F
MARSHALL       CLEAR     71  71  98 CALM      29.99S
MOUNT PLEASANT CLEAR     72  67  85 CALM      29.96S
MUSKEGON       CLEAR     69  67  93 CALM      29.98S
SOUTH HAVEN    CLEAR     68  67  97 CALM      29.99S
$$
MIZ016>042-230500-
NORTHERN LOWER MICHIGAN

CITY           SKY/WX    TMP DP  RH WIND       PRES   REMARKS
ALPENA         CLEAR     71  59  65 CALM      29.94S
BEAVER ISLAND  CLEAR     65  62  88 CALM      29.93F
BELLAIRE       CLEAR     67  64  93 CALM      29.95R
CADILLAC       CLEAR     65  60  84 CALM      29.99S
CHARLEVOIX     CLEAR     71  64  78 SW7       29.97S
FRANKFORT      CLEAR     73  67  81 NW3       29.95S
GAYLORD        CLEAR     71  61  70 CALM      29.98S
GRAYLING       CLEAR     64  62  91 CALM      29.98F
HARBOR SPRINGS CLEAR     69  65  85 CALM      29.94F
HOUGHTON LAKE  CLEAR     63  60  90 CALM      29.99S
MANISTEE       CLEAR     68  67  96 CALM      29.95S
OSCODA         CLEAR     70  59  69 CALM      29.93S
PELLSTON       CLEAR     69  60  73 NW3       29.93F
ROGERS CITY    CLEAR     74  60  63 W6        29.94R
TRAVERSE CITY  CLEAR     75  62  64 CALM      29.92S
$$
MIZ007>008-015-230500-
EASTERN UPPER MICHIGAN

CITY           SKY/WX    TMP DP  RH WIND       PRES   REMARKS
KINROSS        CLEAR     65  60  84 CALM      29.92S
MACKINAC ISLAN CLEAR     70  64  81 SW6       29.92S
NEWBERRY       CLEAR     66  61  85 W6        29.91F
S. S. MARIE    CLEAR     65  59  81 W7        29.90F
MUNISING         N/A     66  63  90 S7        29.91S
$$
MIZ004>006-011>014-085-230500-
CENTRAL UPPER MICHIGAN

CITY           SKY/WX    TMP DP  RH WIND       PRES   REMARKS
MANISTIQUE     CLEAR     62  62  97 CALM      29.92S
ESCANABA       CLEAR     66  59  77 W6        29.92S
MENOMINEE      CLEAR     70  69  97 CALM      29.95R
SAWYER-GWINN   CLEAR     69  57  65 CALM      29.96S
$$
MIZ001>003-009>011-084-230500-
WESTERN UPPER MICHIGAN

CITY           SKY/WX    TMP DP  RH WIND       PRES   REMARKS
IRON MOUNTAIN  CLEAR     67  59  75 CALM      29.96S
HOUGHTON       CLEAR     65  54  67 NW9       29.95R
COPPER HARBOR    N/A     72  58  61 W6        29.90S
IRONWOOD       CLEAR     64  63  94 CALM      29.98R
$$

ABBREVIATIONS USED IN REMARKS
   TC - TEMPERATURE IN CELSIUS
  WCI - WIND CHILL INDEX
   HX - HEAT INDEX
  VSB - VISIBILITY





USA.gov is the U.S. government's official web portal to all federal, state and local government web resources and services.